TimeMDT,TemperatureF,Dew PointF,Humidity,Sea Level PressureIn,VisibilityMPH,Wind Direction,Wind SpeedMPH,Gust SpeedMPH,PrecipitationIn,Events,Conditions,WindDirDegrees,DateUTC
12:53 AM,35.1,27.0,72,30.24,10.0,West,11.5,-,N/A,,Clear,280,2013-10-06 06:53:00
1:53 AM,35.1,27.0,72,30.24,10.0,WSW,12.7,-,N/A,,Clear,250,2013-10-06 07:53:00
2:53 AM,37.0,28.0,70,30.23,10.0,WSW,18.4,-,N/A,,Clear,250,2013-10-06 08:53:00
3:53 AM,36.0,28.0,73,30.22,10.0,WSW,16.1,-,N/A,,Clear,250,2013-10-06 09:53:00
4:53 AM,37.9,28.0,68,30.22,10.0,WSW,18.4,-,N/A,,Clear,250,2013-10-06 10:53:00
5:53 AM,37.0,28.9,73,30.23,10.0,West,13.8,-,N/A,,Clear,270,2013-10-06 11:53:00
6:53 AM,39.0,28.9,67,30.23,10.0,WSW,19.6,-,N/A,,Clear,250,2013-10-06 12:53:00
7:53 AM,37.9,28.9,70,30.24,10.0,WSW,16.1,-,N/A,,Clear,250,2013-10-06 13:53:00
8:53 AM,39.0,30.0,70,30.25,10.0,WSW,13.8,-,N/A,,Clear,250,2013-10-06 14:53:00
9:53 AM,41.0,30.9,67,30.26,10.0,WSW,15.0,-,N/A,,Clear,250,2013-10-06 15:53:00
10:53 AM,41.0,32.0,70,30.26,10.0,WSW,12.7,-,N/A,,Clear,240,2013-10-06 16:53:00
11:53 AM,42.1,32.0,67,30.24,10.0,West,15.0,-,N/A,,Clear,260,2013-10-06 17:53:00
12:53 PM,43.0,33.1,68,30.23,10.0,WSW,18.4,-,N/A,,Clear,250,2013-10-06 18:53:00
1:53 PM,43.0,34.0,71,30.21,10.0,WSW,13.8,-,N/A,,Clear,250,2013-10-06 19:53:00
2:53 PM,46.0,35.1,66,30.18,10.0,West,13.8,-,N/A,,Clear,260,2013-10-06 20:53:00
3:53 PM,46.9,35.1,63,30.17,10.0,WSW,11.5,-,N/A,,Clear,250,2013-10-06 21:53:00
4:53 PM,45.0,35.1,68,30.17,10.0,WSW,12.7,-,N/A,,Clear,250,2013-10-06 22:53:00
5:53 PM,45.0,35.1,68,30.17,10.0,WSW,18.4,-,N/A,,Clear,240,2013-10-06 23:53:00
6:53 PM,43.0,33.1,68,30.15,10.0,WSW,15.0,-,N/A,,Clear,240,2013-10-07 00:53:00
7:53 PM,44.1,33.1,65,30.15,10.0,SW,15.0,-,N/A,,Clear,230,2013-10-07 01:53:00
8:53 PM,43.0,33.1,68,30.15,10.0,SW,12.7,-,N/A,,Clear,220,2013-10-07 02:53:00
9:53 PM,44.1,32.0,63,30.13,10.0,SSE,4.6,-,N/A,,Clear,160,2013-10-07 03:53:00
10:53 PM,44.1,33.1,65,30.12,10.0,Calm,Calm,-,N/A,,Clear,0,2013-10-07 04:53:00
11:53 PM,45.0,32.0,60,30.10,10.0,SSW,5.8,-,N/A,,Clear,200,2013-10-07 05:53:00